DECAYED

CZ-6A DEB, 60862 (Decayed)

Orbit data source: Space-Track

CZ-6A DEB, 60862 was space debris in LEO originally from a launch on Tue, 06 Aug 2024 UTC launched from the Taiyaun Space Center, China (TSC). Debris objects in space refer to the collection of defunct objects orbiting the Earth. Examples of debris include non-operational satellites, rocket bodies, and fragments generated from explosions, collisions, or faulty payload assembly.

Not visible in the next 10 days
Identifier
60862, 2024-140JR
Orbit
Decayed
Country
Flag of CNCN / PRC
Related business
Manufacturer
SAST
Mission
Decayed spacecraft
Bus & Motor
Unknown
Mass
Unknown
Launch date (UTC)
2024-08-06 (2 years ago)
Launch vehicle
Unknown
Launch site
Taiyaun Space Center, China (TSC)
Object type
Payload
Rocket body
Debris
Shape & HBR
Unknown shape, 0.1 m
Radar Cross Section
Medium (>0.1 m² and <1 m²)

Expand to show TLE details & history
Last TLE update: 10 months ago

TLE from 10 months ago
0 CZ-6A DEB
1 60862U 24140JR  25245.66341091  .22909910 -20852-5  13249-1 0  9996
2 60862  88.9098 299.0350 0010417 271.1674  88.8431 16.18834074 57225
Epoch: 2025-09-02T15:55Z
TLE epoch observation values (Epoch: 2025-09-02T15:55:18.702Z)
Latitude
-0.00006°
Longitude
78.15566°
Altitude
225.919 km
Speed
7.771 km/s
True Right ascension
19h 56m 08s
True Declination
0° 00' 00"
Sunlit
Object was in full shadow at epoch
Visualization orbit readout
Latitude
Unknown
Longitude
Unknown
Altitude
Unknown
Speed
Unknown
Apparent Right ascension
Unknown
Apparent Declination
Unknown
Sunlit
N/A
Visualization observer readout
Local Sidereal Time
07:20:49
Azimuth
Unknown
Elevation
Unknown
Doppler factor
Unknown
Orbital elements
Apogee altitude
226.265 km
Perigee altitude
212.52 km
Semi-major axis
6,597.529 km
Eccentricity
0.00104
Inclination
88.9098°
RAAN
299.035°
Arg. of periapsis
271.1674°
True anomaly
88.96245°
Mean anomaly
88.8431°
Eccentric anomaly
88.90277°
Mean motion
4.05015 °/min
Orbital period
88.89 mins
BSTAR
0.013249
Loading maneuver chart data...
Computing Atmospheric mass density...
Loading historical data...
Loading historical data...
Loading historical data...
Loading historical data...
Loading historical data...
Loading historical data...
Loading historical data...

Documentation

Showing up to 5 results
|